Regional Weather Roundup
Issued by NWS Charleston, WV

Home | Current Version | Previous Version | Graphics & Text | Print | Product List | Glossary On
Versions: 1 2 3 4 5 6 7 8 9 10 11 12 13 14 15 16 17 18 19 20 21 22 23 24 25 26 27 28 29 30 31 32 33 34 35 36 37 38 39 40 41 42 43 44 45 46 47 48 49 50
000
ASUS41 KRLX 010810
RWRRLX
West Virginia Regional Weather Roundup
National Weather Service Charleston WV
400 AM EDT SAT OCT 01 2016

Note: "fair" indicates few or no clouds below 12,000 feet with no
significant weather and/or obstructions to visibility.

WVZ003-010900-
Northern Panhandle of West Virginia

CITY           SKY/WX    TMP DP  RH WIND       PRES   REMARKS
WHEELING       CLOUDY    58  54  86 E5        30.08S
$$

WVZ009-010900-
Northwest West Virginia

CITY           SKY/WX    TMP DP  RH WIND       PRES   REMARKS
PARKERSBURG    CLOUDY    60  59  96 CALM      30.09S FOG
$$

WVZ006-010900-
Western West Virginia

CITY           SKY/WX    TMP DP  RH WIND       PRES   REMARKS
HUNTINGTON     FOG       52  51  97 SW3       30.07R VSB 3/4
$$

WVZ015-010900-
West Central West Virginia

CITY           SKY/WX    TMP DP  RH WIND       PRES   REMARKS
CHARLESTON     CLOUDY    58  57  97 CALM      30.06S FOG
$$

WVZ022-031-010900-
North Central West Virginia

CITY           SKY/WX    TMP DP  RH WIND       PRES   REMARKS
CLARKSBURG     PTCLDY    57  55  93 N3        30.07F
MORGANTOWN     CLOUDY    61  56  83 E3        30.09F
$$

WVZ025-035-042-045-010900-
Southern West Virginia

CITY           SKY/WX    TMP DP  RH WIND       PRES   REMARKS
BECKLEY        FOG       55  54  96 CALM      30.10R VSB 3/4
LOGAN          FOG       55  55 100 CALM      30.08R VSB<1/4
BLUEFIELD      FOG       53  52  96 W5        30.11R VSB 1/4
LEWISBURG      MOCLDY    57  56  95 CALM      30.09S
$$

WVZ047-010900-
Northern Mountains of West Virginia

CITY           SKY/WX    TMP DP  RH WIND       PRES   REMARKS
ELKINS         CLOUDY    56  54  93 CALM      30.11S
$$

WVZ052-010900-
Eastern Panhandle of West Virginia

CITY           SKY/WX    TMP DP  RH WIND       PRES   REMARKS
MARTINSBURG    CLOUDY    58  57  97 N9        30.12S FOG
PETERSBURG     CLOUDY    58  58  97 CALM      30.13S FOG
$$




USA.gov is the U.S. government's official web portal to all federal, state and local government web resources and services.